This is the latest recevied weather packets stored in our database for station/object W4KAB. If no packets are shown the sender has not sent any weather packets the latest 10 day(s).
| Time | Temp. | Humidity | Pressure | Rain* | Wind** | Luminosity | Snow |
|---|---|---|---|---|---|---|---|
| 1777658872 | 20° C | 42% | 1015.5 hPa | 0 mm | - | 750 W/m² | - |
| 1777658567 | 19.44° C | 44% | 1015.4 hPa | 0 mm | - | 765 W/m² | - |
| 1777658264 | 18.89° C | 46% | 1015.4 hPa | 0 mm | - | 753 W/m² | - |
| 1777657962 | 20° C | 42% | 1015.5 hPa | 0 mm | - | 578 W/m² | - |
| 1777657658 | 19.44° C | 46% | 1015.3 hPa | 0 mm | - | 754 W/m² | - |
| 1777657355 | 20° C | 45% | 1015.6 hPa | 0 mm | - | 710 W/m² | - |
| 1777657053 | 18.89° C | 45% | 1015.6 hPa | 0 mm | - | 709 W/m² | - |
| 1777656750 | 18.33° C | 46% | 1015.8 hPa | 0 mm | - | 701 W/m² | - |
| 1777656446 | 19.44° C | 49% | 1015.6 hPa | 0 mm | - | 734 W/m² | - |
| 1777656141 | 18.89° C | 45% | 1015.9 hPa | 0 mm | - | 740 W/m² | - |
| 1777655837 | 18.89° C | 51% | 1015.9 hPa | 0 mm | - | 728 W/m² | - |
| 1777655535 | 18.89° C | 47% | 1016 hPa | 0 mm | - | 737 W/m² | - |
| 1777655232 | 18.33° C | 48% | 1016 hPa | 0 mm | - | 761 W/m² | - |
| 1777654928 | 18.33° C | 46% | 1016 hPa | 0 mm | - | 769 W/m² | - |
| 1777654626 | 18.33° C | 48% | 1016.4 hPa | 0 mm | - | 776 W/m² | - |
| 1777654323 | 18.33° C | 49% | 1016.4 hPa | 0 mm | - | 778 W/m² | - |
| 1777654021 | 18.33° C | 46% | 1016.3 hPa | 0 mm | - | 773 W/m² | - |
| 1777653717 | 18.33° C | 46% | 1016.4 hPa | 0 mm | - | 764 W/m² | - |
| 1777653414 | 17.78° C | 45% | 1016.6 hPa | 0 mm | - | 744 W/m² | - |
| 1777653111 | 17.78° C | 48% | 1016.9 hPa | 0 mm | - | 737 W/m² | - |
| 1777652807 | 17.22° C | 48% | 1016.7 hPa | 0 mm | - | 756 W/m² | - |
| 1777652503 | 17.22° C | 49% | 1016.8 hPa | 0 mm | - | 744 W/m² | - |
| 1777652201 | 16.11° C | 49% | 1016.8 hPa | 0 mm | - | 510 W/m² | - |
| 1777651898 | 16.67° C | 49% | 1016.6 hPa | 0 mm | - | 684 W/m² | - |
| 1777651594 | 16.67° C | 50% | 1017 hPa | 0 mm | - | 655 W/m² | - |
* Rain latest hour (hover to see other rain measurements)
** Current wind speed in m/s (hover to see current wind gust speed)